Portada
METAR-TAF:

METAR-TAF

Aeroports :

Rasht, Iran

latitud: 37-12N, longitud: 049-38E, altitud: -7 m

Observació

L'informe es va fer fa 12 minuts, a les 05:00 UTC
Vent calma
Temperatura 26°C
Humitat 61%
Pressió 1011 hPa
Visibilitat 10 km o més
sense núvols per sota de 1500 mi sense presència de cumulonimbus.

METAR: OIGG 220500Z 00000KT CAVOK 26/18 Q1011

Hora: 09:42 (05:12 UTC)


TAF: manca

Observacions i pronòstics meteorològics de més de 4000 aeroports (METAR i TAF).

Les estacions disponibles són els punts grocs i vermells al mapa.

Posi el ratolí al punt desitjat per veure el nom de l'estació.

Feu clic per veure les observacions i els pronòstics meteorològics.

Per canviar el mapa: feu clic els botons verds amb una creu de color negre per apropar; al botó verd amb un guió per allunyar la imatge; o en les fletxes verdes per a mapes adjacents.


METAR-TAF: